Weather Roundup
Issued by NWS Springfield, MO

Home | Current Version | Previous Version | Text Only | Print | Product List | Glossary On
Versions: 1 2 3 4 5 6 7 8 9 10 11 12 13 14 15 16 17 18 19 20 21 22 23 24 25 26 27 28 29 30 31 32 33 34 35 36 37 38 39 40 41 42 43 44 45 46 47 48 49 50
000
NZUS99 KSGF 282157
HRRSGF

HOURLY WEATHER
NATIONAL WEATHER SERVICE SPRINGFIELD MO
500 PM CDT TUE MAR 28 2017

......SGF CWA......

CITY           SKY/WX    TMP DP  RH WIND       PRES   REMARKS
SPRINGFIELD    SUNNY     68  50  52 E12       29.91F
JOPLIN         SUNNY     67  53  61 E12       29.89F
WEST PLAINS    MOSUNNY   67  50  54 E9        29.97F
ROLLA          CLOUDY    56  50  80 NE12G17   30.02S
BRANSON        MOSUNNY   68  54  60 E6        29.92F

......SURROUNDING SGF CWA......

CITY           SKY/WX    TMP DP  RH WIND       PRES   REMARKS
CHANUTE        PTSUNNY   62  49  62 E12G24    29.91F
PARSONS        CLOUDY    64  51  62 VRB7      29.92S
COFFEYVILLE    SUNNY     64  52  64 NE12      29.90S
EMPORIA        CLOUDY    54  50  86 E12       29.95R
HARRISON AR    SUNNY     70  54  56 E9        29.91F

......KANSAS AND MISSOURI......

CITY           SKY/WX    TMP DP  RH WIND       PRES   REMARKS
KANSAS CTY INT CLOUDY    53  49  86 E12       30.01F
SEDALIA        CLOUDY    57  51  80 E12       30.03F
ST JOSEPH      CLOUDY    53  48  83 E12       30.02F
ST LOUIS       CLOUDY    59  48  67 E7        30.06S
WICHITA        CLOUDY    54  47  77 NE17      29.90F
TOPEKA         CLOUDY    55  50  83 NE12      29.98F
OLATHE         CLOUDY    52  51  97 E13       29.98F

......TENNESSEE......

CITY           SKY/WX    TMP DP  RH WIND       PRES   REMARKS
MEMPHIS        NOT AVBL
NASHVILLE      PTSUNNY   70  52  52 N8        30.00S

......ARKANSAS.......

CITY           SKY/WX    TMP DP  RH WIND       PRES   REMARKS
FAYETTEVILLE   MOSUNNY   76  55  48 S9G17     29.84F
FT SMITH       MOSUNNY   77  57  50 SE10      29.82F
LITTLE ROCK    CLOUDY    73  61  65 E12       29.91F

......OKLAHOMA.......

CITY           SKY/WX    TMP DP  RH WIND       PRES   REMARKS
TULSA          PTSUNNY   75  54  47 SE8       29.80F
PONCA CITY     CLOUDY    66  49  54 E20G25    29.82F
MCALESTER      CLOUDY    76  60  57 SE15G22   29.79F
OKLAHOMA CITY  CLOUDY    67  56  67 E13       29.75S

......IOWA............

CITY           SKY/WX    TMP DP  RH WIND       PRES   REMARKS
DES MOINES     NOT AVBL
QUAD CITIES    CLOUDY    51  41  68 E12       30.12S

......ILLINOIS........

CITY           SKY/WX    TMP DP  RH WIND       PRES   REMARKS
QUINCY         NOT AVBL
CHICAGO        PTSUNNY   46  37  71 NE13      30.14S




USA.gov is the U.S. government's official web portal to all federal, state and local government web resources and services.